Location: Schommer Observatory
(40.5200°N, 74.4500°W)
Time: 06:16:38
(UTC-05:00)

Vanguard 3 - Visible Passes

Search period start: 16 December 2017 00:00
Search period end: 26 December 2017 00:00
Orbit: 509 x 3263 km, 33.3° (Epoch: 15 December)

Date Brightness Start Highest point End Pass type
(mag) Time Alt. Az. Time Alt. Az. Time Alt. Az.
21 Dec 11.5 06:16:10 10° SSE 06:18:18 11° SSE 06:20:15 10° SE visible
23 Dec 11.4 05:55:16 10° S 06:02:24 15° SSE 06:08:04 10° ESE visible
24 Dec 10.8 06:50:25 10° SSW 07:01:14 27° SSE 07:08:27 10° ESE visible
25 Dec 11.2 05:36:11 10° SSW 05:46:24 21° SSE 05:53:57 10° ESE visible
